Location: Caltech
(34.1382°N, 118.1253°W)
Time: 20:51:10
(UTC-07:00)

NOSS 3-2 (A) - Visible Passes

Search period start: 16 April 2014 00:00
Search period end: 26 April 2014 00:00
Orbit: 952 x 1257 km, 63.4° (Epoch: 02 April)

Date Brightness Start Highest point End Pass type
(mag) Time Alt. Az. Time Alt. Az. Time Alt. Az.
16 Apr 5.8 20:57:05 10° N 21:00:17 13° NE 21:03:32 10° ENE visible
16 Apr 4.5 22:45:29 10° NNW 22:51:21 50° NNE 22:51:21 50° NNE visible
17 Apr 6.0 00:37:10 10° NW 00:38:46 16° WNW 00:38:46 16° WNW visible
17 Apr 4.7 22:00:30 10° NNW 22:07:16 37° NE 22:07:35 37° NE visible
17 Apr 5.3 23:51:12 10° NW 23:54:59 30° WNW 23:54:59 30° WNW visible
18 Apr 5.2 21:15:43 10° N 21:21:33 24° NE 21:23:51 21° ENE visible
18 Apr 4.4 23:05:38 10° NW 23:11:15 54° NW 23:11:15 54° NW visible
19 Apr 5.6 20:31:16 10° N 20:35:39 16° NE 20:40:08 10° ENE visible
19 Apr 3.9 22:20:20 10° NNW 22:27:34 71° NE 22:27:34 71° NE visible
20 Apr 5.9 00:12:46 10° WNW 00:14:58 17° WNW 00:14:58 17° WNW visible
20 Apr 5.9 19:47:58 10° NNE 19:49:31 11° NNE 19:51:06 10° NE visible
20 Apr 4.4 21:35:15 10° NNW 21:42:21 46° NE 21:43:54 41° E visible
20 Apr 5.2 23:26:26 10° NW 23:31:19 32° W 23:31:19 32° W visible
21 Apr 4.9 20:50:21 10° NNW 20:56:45 30° NE 21:00:18 22° E visible
21 Apr 4.2 22:40:41 10° NW 22:47:43 58° WSW 22:47:43 58° WSW visible
22 Apr 5.4 20:05:42 10° N 20:10:57 20° NE 20:16:22 10° E visible
22 Apr 3.8 21:55:15 10° NNW 22:02:47 89° ENE 22:04:09 65° SSE visible
22 Apr 6.0 23:48:47 10° WNW 23:51:35 15° W 23:51:35 15° W visible
23 Apr 4.1 21:10:03 10° NNW 21:17:24 59° NE 21:20:39 35° ESE visible
23 Apr 5.3 23:01:51 10° NW 23:07:58 27° WSW 23:08:04 27° WSW visible
24 Apr 4.6 20:25:03 10° NNW 20:31:53 38° NE 20:37:12 17° ESE visible
24 Apr 4.6 22:15:50 10° NW 22:22:54 45° WSW 22:24:38 40° SW visible
25 Apr 4.1 21:30:14 10° NW 21:37:43 72° WSW 21:41:14 36° SSE visible
25 Apr 6.2 23:26:08 10° W 23:27:37 11° WSW 23:28:41 10° WSW visible
